• In Hungary
  • List of Countries
  • For 7 days
  • Water Temperature
  • Satellite Maps
  • Weather Map
  • News
  • Weather Widgets
  • user-avatar
    Login

    Hourly Weather Prägraten

    Today, 18 August, Saturday

    Time Temperature Precipitation Wind Pressure Humidity
    00:00 +7°C° 0 mm 1 mps 581 mmHg 92%
    01:00 +6°C° 0 mm 1 mps 581 mmHg 90%
    02:00 +6°C° 0 mm 1 mps 581 mmHg 91%
    03:00 +6°C° 0 mm 1 mps 581 mmHg 91%
    04:00 +6°C° 0 mm 1 mps 581 mmHg 92%
    05:00 +7°C° 0 mm 1 mps 582 mmHg 90%
    06:00 +8°C° 0 mm 1 mps 583 mmHg 89%
    07:00 +9°C° 0 mm 1 mps 583 mmHg 88%
    08:00 +11°C° 0 mm 1 mps 584 mmHg 77%
    09:00 +13°C° 0 mm 1 mps 585 mmHg 67%
    10:00 +15°C° 0 mm 1 mps 587 mmHg 57%
    11:00 +16°C° 0.5 mm 1 mps 587 mmHg 57%
    12:00 +16°C° 0.5 mm 1 mps 587 mmHg 56%
    13:00 +18°C° 0.5 mm 1 mps 587 mmHg 55%
    14:00 +16°C° 0.9 mm 1 mps 586 mmHg 59%
    15:00 +16°C° 0.9 mm 1 mps 586 mmHg 64%
    16:00 +15°C° 0.9 mm 1 mps 586 mmHg 68%
    17:00 +13°C° 0.8 mm 1 mps 585 mmHg 75%
    18:00 +12°C° 0.8 mm 1 mps 584 mmHg 82%
    19:00 +9°C° 0.8 mm 0 mps 584 mmHg 89%
    20:00 +8°C° 0.4 mm 0 mps 584 mmHg 90%
    21:00 +9°C° 0.4 mm 1 mps 584 mmHg 92%
    22:00 +8°C° 0.4 mm 1 mps 584 mmHg 93%
    23:00 +8°C° 0.1 mm 1 mps 584 mmHg 93%

    Tomorrow, 19 August, Sunday

    Time Temperature Precipitation Wind Pressure Humidity
    00:00 +7°C° 0.1 mm 1 mps 584 mmHg 93%
    01:00 +7°C° 0.1 mm 1 mps 584 mmHg 93%
    02:00 +7°C° 0 mm 1 mps 583 mmHg 93%
    03:00 +6°C° 0 mm 1 mps 583 mmHg 93%
    04:00 +6°C° 0 mm 1 mps 583 mmHg 93%
    05:00 +7°C° 0 mm 1 mps 583 mmHg 91%
    06:00 +8°C° 0 mm 1 mps 584 mmHg 89%
    07:00 +10°C° 0 mm 1 mps 585 mmHg 87%
    08:00 +12°C° 0.1 mm 1 mps 586 mmHg 79%
    09:00 +14°C° 0.1 mm 1 mps 587 mmHg 71%
    10:00 +16°C° 0.1 mm 1 mps 588 mmHg 62%
    11:00 +16°C° 0.8 mm 1 mps 588 mmHg 62%
    12:00 +16°C° 0.8 mm 1 mps 588 mmHg 62%
    13:00 +16°C° 0.8 mm 1 mps 587 mmHg 62%
    14:00 +16°C° 1.3 mm 1 mps 587 mmHg 65%
    15:00 +16°C° 1.3 mm 1 mps 587 mmHg 68%
    16:00 +15°C° 1.3 mm 1 mps 586 mmHg 70%
    17:00 +14°C° 1 mm 1 mps 586 mmHg 77%
    18:00 +11°C° 1 mm 0 mps 585 mmHg 84%
    19:00 +9°C° 1 mm 0 mps 584 mmHg 90%
    20:00 +8°C° 0.3 mm 0 mps 584 mmHg 92%
    21:00 +8°C° 0.3 mm 0 mps 584 mmHg 93%
    22:00 +8°C° 0.3 mm 1 mps 583 mmHg 94%
    23:00 +7°C° 0 mm 1 mps 583 mmHg 94%

    Day after tomorrow, 20 August, Monday

    Time Temperature Precipitation Wind Pressure Humidity
    00:00 +7°C° 0 mm 1 mps 583 mmHg 95%
    01:00 +7°C° 0 mm 1 mps 583 mmHg 95%
    02:00 +6°C° 0 mm 1 mps 582 mmHg 95%
    03:00 +6°C° 0 mm 1 mps 582 mmHg 95%
    04:00 +6°C° 0 mm 1 mps 582 mmHg 95%
    05:00 +7°C° 0 mm 1 mps 583 mmHg 94%
    06:00 +9°C° 0 mm 1 mps 583 mmHg 93%
    07:00 +10°C° 0 mm 1 mps 584 mmHg 91%
    08:00 +12°C° 0 mm 1 mps 585 mmHg 83%
    09:00 +13°C° 0 mm 1 mps 586 mmHg 75%
    10:00 +15°C° 0 mm 1 mps 587 mmHg 67%
    11:00 +16°C° 0.4 mm 1 mps 587 mmHg 65%
    12:00 +16°C° 0.4 mm 1 mps 587 mmHg 63%
    13:00 +18°C° 0.4 mm 1 mps 587 mmHg 61%
    14:00 +16°C° 1.1 mm 1 mps 586 mmHg 65%
    15:00 +16°C° 1.1 mm 1 mps 586 mmHg 70%
    16:00 +15°C° 1.1 mm 1 mps 585 mmHg 74%
    17:00 +14°C° 1.2 mm 1 mps 585 mmHg 80%
    18:00 +12°C° 1.2 mm 1 mps 584 mmHg 85%
    19:00 +11°C° 1.2 mm 1 mps 584 mmHg 91%
    20:00 +10°C° 0.4 mm 1 mps 584 mmHg 93%
    21:00 +10°C° 0.4 mm 1 mps 584 mmHg 94%
    22:00 +9°C° 0.4 mm 1 mps 584 mmHg 95%
    23:00 +9°C° 0.1 mm 1 mps 584 mmHg 96%

    21 August, Tuesday

    Time Temperature Precipitation Wind Pressure Humidity
    00:00 +9°C° 0.1 mm 1 mps 584 mmHg 96%
    01:00 +8°C° 0.1 mm 1 mps 583 mmHg 96%
    02:00 +8°C° 0 mm 1 mps 583 mmHg 96%
    03:00 +8°C° 0 mm 1 mps 583 mmHg 96%
    04:00 +8°C° 0 mm 1 mps 583 mmHg 96%
    05:00 +8°C° 0 mm 1 mps 583 mmHg 95%
    06:00 +9°C° 0 mm 1 mps 584 mmHg 94%
    07:00 +10°C° 0 mm 1 mps 584 mmHg 92%
    08:00 +12°C° 0.1 mm 1 mps 585 mmHg 85%
    09:00 +13°C° 0.1 mm 1 mps 586 mmHg 77%
    10:00 +15°C° 0.1 mm 1 mps 587 mmHg 69%
    11:00 +15°C° 0.7 mm 1 mps 587 mmHg 69%
    12:00 +16°C° 0.7 mm 1 mps 587 mmHg 69%
    13:00 +16°C° 0.7 mm 1 mps 586 mmHg 68%
    14:00 +16°C° 1.1 mm 1 mps 586 mmHg 70%
    15:00 +15°C° 1.1 mm 1 mps 586 mmHg 72%
    16:00 +15°C° 1.1 mm 1 mps 586 mmHg 74%
    17:00 +14°C° 0.7 mm 1 mps 585 mmHg 80%
    18:00 +11°C° 0.7 mm 0 mps 585 mmHg 86%
    19:00 +9°C° 0.7 mm 0 mps 584 mmHg 92%
    20:00 +9°C° 0 mm 0 mps 584 mmHg 93%
    21:00 +8°C° 0 mm 0 mps 584 mmHg 94%
    22:00 +8°C° 0 mm 1 mps 583 mmHg 95%
    23:00 +8°C° 0 mm 1 mps 583 mmHg 95%

    22 August, Wednesday

    Time Temperature Precipitation Wind Pressure Humidity
    00:00 +8°C° 0 mm 1 mps 583 mmHg 95%
    01:00 +7°C° 0 mm 1 mps 583 mmHg 94%
    02:00 +7°C° 0 mm 1 mps 583 mmHg 94%
    03:00 +7°C° 0 mm 1 mps 583 mmHg 94%
    04:00 +7°C° 0 mm 1 mps 583 mmHg 94%
    05:00 +8°C° 0 mm 1 mps 583 mmHg 92%
    06:00 +9°C° 0 mm 1 mps 584 mmHg 90%
    07:00 +10°C° 0 mm 1 mps 585 mmHg 88%
    08:00 +12°C° 0 mm 1 mps 586 mmHg 78%
    09:00 +15°C° 0 mm 1 mps 587 mmHg 69%
    10:00 +18°C° 0 mm 1 mps 588 mmHg 60%
    11:00 +18°C° 0.3 mm 1 mps 587 mmHg 60%
    12:00 +18°C° 0.3 mm 1 mps 587 mmHg 60%
    13:00 +18°C° 0.3 mm 1 mps 587 mmHg 60%
    14:00 +18°C° 1 mm 1 mps 587 mmHg 64%
    15:00 +18°C° 1 mm 1 mps 586 mmHg 68%
    16:00 +16°C° 1 mm 1 mps 586 mmHg 72%
    17:00 +14°C° 1 mm 1 mps 585 mmHg 79%
    18:00 +13°C° 1 mm 1 mps 585 mmHg 85%
    19:00 +10°C° 1 mm 0 mps 584 mmHg 92%
    20:00 +9°C° 0.4 mm 0 mps 584 mmHg 93%
    21:00 +10°C° 0.4 mm 1 mps 584 mmHg 93%
    22:00 +9°C° 0.4 mm 1 mps 584 mmHg 94%
    23:00 +8°C° 0.1 mm 1 mps 583 mmHg 94%

    23 August, Thursday

    Time Temperature Precipitation Wind Pressure Humidity
    00:00 +8°C° 0.1 mm 1 mps 583 mmHg 94%
    01:00 +8°C° 0.1 mm 1 mps 583 mmHg 94%
    02:00 +8°C° 0.1 mm 1 mps 582 mmHg 94%
    03:00 +7°C° 0.1 mm 1 mps 582 mmHg 94%
    04:00 +7°C° 0.1 mm 1 mps 582 mmHg 94%
    05:00 +8°C° 0 mm 1 mps 583 mmHg 92%
    06:00 +8°C° 0 mm 0 mps 583 mmHg 90%
    07:00 +9°C° 0 mm 0 mps 584 mmHg 88%
    08:00 +12°C° 0.1 mm 1 mps 584 mmHg 80%
    09:00 +14°C° 0.1 mm 1 mps 585 mmHg 72%
    10:00 +16°C° 0.1 mm 1 mps 586 mmHg 63%
    11:00 +18°C° 0.8 mm 1 mps 586 mmHg 62%
    12:00 +18°C° 0.8 mm 1 mps 586 mmHg 61%
    13:00 +18°C° 0.8 mm 1 mps 586 mmHg 60%
    14:00 +18°C° 2 mm 1 mps 585 mmHg 66%
    15:00 +16°C° 2 mm 1 mps 584 mmHg 71%
    16:00 +15°C° 2 mm 1 mps 584 mmHg 77%
    17:00 +14°C° 1.7 mm 1 mps 583 mmHg 82%
    18:00 +12°C° 1.7 mm 1 mps 583 mmHg 87%
    19:00 +11°C° 1.7 mm 1 mps 582 mmHg 91%
    20:00 +10°C° 0.7 mm 1 mps 582 mmHg 92%
    21:00 +10°C° 0.7 mm 1 mps 582 mmHg 93%
    22:00 +9°C° 0.7 mm 1 mps 582 mmHg 94%
    23:00 +9°C° 0.4 mm 1 mps 581 mmHg 94%
    Show more